This is the latest recevied weather packets stored in our database for station/object KF4LQQ-13. If no packets are shown the sender has not sent any weather packets the latest 10 day(s).
| Time | Temp. | Humidity | Pressure | Rain* | Wind** | Luminosity | Snow |
|---|---|---|---|---|---|---|---|
| 1778004986 | 29.44° C | - | 1012.7 hPa | 0 mm | - | - | - |
| 1778004385 | 28.33° C | - | 1012.8 hPa | 0 mm | - | - | - |
| 1778003785 | 28.33° C | - | 1012.9 hPa | 0 mm | - | - | - |
| 1778003185 | 28.33° C | - | 1013 hPa | 0 mm | - | - | - |
| 1778002673 | 28.33° C | - | 1013.1 hPa | 0 mm | - | - | - |
| 1778002585 | 28.33° C | - | 1013.1 hPa | 0 mm | - | - | - |
| 1778001984 | 27.78° C | - | 1013.2 hPa | 0 mm | - | - | - |
| 1778001384 | 28.33° C | - | 1013.4 hPa | 0 mm | - | - | - |
| 1778000784 | 28.33° C | - | 1013.3 hPa | 0 mm | - | - | - |
| 1778000184 | 28.33° C | - | 1013.3 hPa | 0 mm | - | - | - |
| 1777999583 | 28.33° C | - | 1013.3 hPa | 0 mm | - | - | - |
| 1777998983 | 27.78° C | - | 1013.4 hPa | 0 mm | - | - | - |
| 1777998383 | 27.78° C | - | 1013.4 hPa | 0 mm | - | - | - |
| 1777997783 | 27.22° C | - | 1013.4 hPa | 0 mm | - | - | - |
| 1777997182 | 27.22° C | - | 1013.5 hPa | 0 mm | - | - | - |
| 1777996581 | 26.67° C | - | 1013.6 hPa | 0 mm | - | - | - |
| 1777995981 | 26.67° C | - | 1013.7 hPa | 0 mm | - | - | - |
| 1777995381 | 26.67° C | - | 1013.8 hPa | 0 mm | - | - | - |
| 1777994781 | 26.11° C | - | 1013.8 hPa | 0 mm | - | - | - |
| 1777994181 | 26.11° C | - | 1013.9 hPa | 0 mm | - | - | - |
| 1777993579 | 25.56° C | - | 1013.9 hPa | 0 mm | - | - | - |
| 1777992977 | 25.56° C | - | 1013.9 hPa | 0 mm | - | - | - |
| 1777992377 | 25° C | - | 1013.7 hPa | 0 mm | - | - | - |
| 1777991777 | 24.44° C | - | 1013.5 hPa | 0 mm | - | - | - |
| 1777991330 | 23.89° C | - | 1013.3 hPa | 0 mm | - | - | - |
* Rain since midnight (hover to see other rain measurements)
** Current wind speed in m/s (hover to see current wind gust speed)